Location: Mahannah Oil Field
(37.4664°N, 96.6003°W)
Time: 02:55:36
(UTC+00:00)

A-11 Canister half - Pass Details

Date: 01 February 2021
Orbit: 1525 x 1684 km, 47.3° (Epoch: 02 March)

Event Time Altitude Azimuth Distance (km) Brightness Sun altitude
Rises 15:22:50 0° 167° (SSE) 4,683 12.4 18.6°
Reaches altitude 10° 15:29:35 10° 133° (SE) 3,686 13.5 19.6°
Maximum altitude 15:31:22 11° 121° (ESE) 3,632 13.0 19.8°
Drops below altitude 10° 15:33:09 10° 110° (ESE) 3,685 12.5 20.1°
Sets 15:39:50 0° 76° (ENE) 4,678 12.0 21.1°
